Time,TemperatureF,DewpointF,PressureIn,WindDirection,WindDirectionDegrees,WindSpeedMPH,WindSpeedGustMPH,Humidity,HourlyPrecipIn,Conditions,Clouds,dailyrainin,SolarRadiationWatts/m^2,SoftwareType,DateUTC
2013-03-20 00:04:00,65.7,61.7,29.96,ENE,60,2.0,4.0,87,0.00,,,0.00,0,Wunderground v.1.15,2013-03-20 05:04:00,
2013-03-20 00:09:00,65.6,59.6,29.96,East,82,3.0,9.0,81,0.00,,,0.00,0,Wunderground v.1.15,2013-03-20 05:09:00,
2013-03-20 00:14:00,65.6,57.1,29.97,NE,44,4.0,9.0,74,0.00,,,0.00,0,Wunderground v.1.15,2013-03-20 05:14:00,
2013-03-20 00:24:00,65.5,54.2,29.97,ENE,61,4.0,4.0,67,0.00,,,0.00,0,Wunderground v.1.15,2013-03-20 05:24:00,
2013-03-20 00:34:00,65.2,52.7,29.97,East,90,5.0,6.0,64,0.00,,,0.00,0,Wunderground v.1.15,2013-03-20 05:34:00,
2013-03-20 00:39:00,64.9,52.0,29.98,East,82,4.0,4.0,63,0.00,,,0.00,0,Wunderground v.1.15,2013-03-20 05:39:00,
2013-03-20 00:44:00,64.7,50.5,29.98,ENE,76,4.0,4.0,60,0.00,,,0.00,0,Wunderground v.1.15,2013-03-20 05:44:00,
2013-03-20 00:54:00,64.4,48.8,29.99,East,85,3.0,5.0,57,0.00,,,0.00,0,Wunderground v.1.15,2013-03-20 05:54:00,
2013-03-20 00:59:00,64.3,48.3,29.99,East,81,3.0,3.0,56,0.00,,,0.00,0,Wunderground v.1.15,2013-03-20 05:59:00,
2013-03-20 01:04:00,64.2,47.7,29.98,East,86,4.0,4.0,55,0.00,,,0.00,0,Wunderground v.1.15,2013-03-20 06:04:00,
2013-03-20 01:09:00,64.1,47.6,29.99,NE,53,3.0,3.0,55,0.00,,,0.00,0,Wunderground v.1.15,2013-03-20 06:09:00,
2013-03-20 01:14:00,64.0,47.0,29.98,ENE,59,3.0,3.0,54,0.00,,,0.00,0,Wunderground v.1.15,2013-03-20 06:14:00,
2013-03-20 01:24:00,63.9,46.9,30.00,NE,55,3.0,4.0,54,0.00,,,0.00,0,Wunderground v.1.15,2013-03-20 06:24:00,
2013-03-20 01:29:00,63.8,46.3,30.00,East,84,2.0,4.0,53,0.00,,,0.00,0,Wunderground v.1.15,2013-03-20 06:29:00,
2013-03-20 01:34:00,63.8,46.8,30.00,ENE,78,2.0,4.0,54,0.00,,,0.00,0,Wunderground v.1.15,2013-03-20 06:34:00,
2013-03-20 01:44:00,63.6,46.6,30.01,East,80,1.0,2.0,54,0.00,,,0.00,0,Wunderground v.1.15,2013-03-20 06:44:00,
2013-03-20 01:54:00,63.5,46.1,30.01,ENE,76,1.0,3.0,53,0.00,,,0.00,0,Wunderground v.1.15,2013-03-20 06:54:00,
2013-03-20 01:59:00,63.4,46.0,30.02,North,11,1.0,3.0,53,0.00,,,0.00,0,Wunderground v.1.15,2013-03-20 06:59:00,
2013-03-20 02:04:00,63.4,46.5,30.03,NE,45,3.0,3.0,54,0.00,,,0.00,0,Wunderground v.1.15,2013-03-20 07:04:00,
2013-03-20 02:14:00,63.2,44.8,30.05,North,355,4.0,7.0,51,0.00,,,0.00,0,Wunderground v.1.15,2013-03-20 07:14:00,
2013-03-20 02:24:00,63.2,44.8,30.06,North,360,3.0,8.0,51,0.00,,,0.00,0,Wunderground v.1.15,2013-03-20 07:24:00,
2013-03-20 02:29:00,63.1,44.7,30.06,NNW,345,3.0,3.0,51,0.00,,,0.00,0,Wunderground v.1.15,2013-03-20 07:29:00,
2013-03-20 02:39:00,62.9,43.4,30.06,North,360,4.0,7.0,49,0.00,,,0.00,0,Wunderground v.1.15,2013-03-20 07:39:00,
2013-03-20 02:44:00,62.8,43.3,30.06,ENE,61,5.0,7.0,49,0.00,,,0.00,0,Wunderground v.1.15,2013-03-20 07:44:00,
2013-03-20 02:49:00,62.7,42.7,30.05,North,355,4.0,4.0,48,0.00,,,0.00,0,Wunderground v.1.15,2013-03-20 07:49:00,
2013-03-20 02:54:00,62.6,42.6,30.04,NNW,343,5.0,14.0,48,0.00,,,0.00,0,Wunderground v.1.15,2013-03-20 07:54:00,
2013-03-20 02:59:00,62.5,42.5,30.05,North,5,6.0,6.0,48,0.00,,,0.00,0,Wunderground v.1.15,2013-03-20 07:59:00,
2013-03-20 03:05:00,62.4,42.4,30.05,NNE,15,5.0,7.0,48,0.00,,,0.00,0,Wunderground v.1.15,2013-03-20 08:05:00,
2013-03-20 03:14:00,62.2,42.3,30.05,North,11,4.0,5.0,48,0.00,,,0.00,0,Wunderground v.1.15,2013-03-20 08:14:00,
2013-03-20 03:19:00,62.0,42.1,30.05,ENE,59,5.0,6.0,48,0.00,,,0.00,0,Wunderground v.1.15,2013-03-20 08:19:00,
2013-03-20 03:24:00,61.9,42.0,30.07,NNW,335,7.0,7.0,48,0.00,,,0.00,0,Wunderground v.1.15,2013-03-20 08:24:00,
2013-03-20 03:29:00,61.8,42.4,30.07,NE,53,6.0,6.0,49,0.00,,,0.00,0,Wunderground v.1.15,2013-03-20 08:29:00,
2013-03-20 03:39:00,61.0,42.2,30.06,ESE,118,5.0,5.0,50,0.00,,,0.00,0,Wunderground v.1.15,2013-03-20 08:39:00,
2013-03-20 03:49:00,60.9,42.1,30.06,NE,38,5.0,7.0,50,0.00,,,0.00,0,Wunderground v.1.15,2013-03-20 08:49:00,
2013-03-20 03:54:00,60.8,42.0,30.06,NNE,25,6.0,7.0,50,0.00,,,0.00,0,Wunderground v.1.15,2013-03-20 08:54:00,
2013-03-20 03:59:00,60.8,42.0,30.07,SE,133,5.0,5.0,50,0.00,,,0.00,0,Wunderground v.1.15,2013-03-20 08:59:00,
2013-03-20 04:09:00,60.7,42.5,30.08,North,351,3.0,3.0,51,0.00,,,0.00,0,Wunderground v.1.15,2013-03-20 09:09:00,
2013-03-20 04:14:00,60.6,42.4,30.09,NNW,343,2.0,3.0,51,0.00,,,0.00,0,Wunderground v.1.15,2013-03-20 09:14:00,
2013-03-20 04:19:00,60.6,42.9,30.08,ENE,57,2.0,5.0,52,0.00,,,0.00,0,Wunderground v.1.15,2013-03-20 09:19:00,
2013-03-20 04:24:00,60.3,44.1,30.08,North,360,4.0,9.0,55,0.00,,,0.00,0,Wunderground v.1.15,2013-03-20 09:24:00,
2013-03-20 04:29:00,59.7,45.3,30.08,NNE,22,5.0,7.0,59,0.00,,,0.00,0,Wunderground v.1.15,2013-03-20 09:29:00,
2013-03-20 04:39:00,58.2,46.5,30.08,North,9,4.0,4.0,65,0.00,,,0.00,0,Wunderground v.1.15,2013-03-20 09:39:00,
2013-03-20 04:44:00,57.5,47.4,30.08,ENE,63,4.0,4.0,69,0.00,,,0.00,0,Wunderground v.1.15,2013-03-20 09:44:00,
2013-03-20 04:49:00,56.8,47.5,30.08,NE,55,4.0,4.0,71,0.00,,,0.00,0,Wunderground v.1.15,2013-03-20 09:49:00,
2013-03-20 04:59:00,56.0,48.2,30.08,NNE,17,3.0,7.0,75,0.00,,,0.00,0,Wunderground v.1.15,2013-03-20 09:59:00,
2013-03-20 05:04:00,55.7,48.2,30.07,ENE,69,4.0,7.0,76,0.00,,,0.00,0,Wunderground v.1.15,2013-03-20 10:04:00,
2013-03-20 05:14:00,55.8,49.0,30.08,NE,54,4.0,4.0,78,0.00,,,0.00,0,Wunderground v.1.15,2013-03-20 10:14:00,
2013-03-20 05:19:00,55.9,49.5,30.08,NNW,344,4.0,4.0,79,0.00,,,0.00,0,Wunderground v.1.15,2013-03-20 10:19:00,
2013-03-20 05:24:00,55.8,49.4,30.08,NNE,27,3.0,4.0,79,0.00,,,0.00,0,Wunderground v.1.15,2013-03-20 10:24:00,
2013-03-20 05:34:00,55.5,49.8,30.09,NE,49,4.0,4.0,81,0.00,,,0.00,0,Wunderground v.1.15,2013-03-20 10:34:00,
2013-03-20 05:44:00,55.2,49.5,30.08,ENE,61,4.0,6.0,81,0.00,,,0.00,0,Wunderground v.1.15,2013-03-20 10:44:00,
2013-03-20 05:49:00,55.0,49.6,30.08,NNE,31,5.0,10.0,82,0.00,,,0.00,0,Wunderground v.1.15,2013-03-20 10:49:00,
2013-03-20 05:54:00,54.9,49.5,30.07,East,80,6.0,10.0,82,0.00,,,0.00,0,Wunderground v.1.15,2013-03-20 10:54:00,
2013-03-20 05:59:00,54.9,49.5,30.08,ENE,61,6.0,7.0,82,0.00,,,0.00,0,Wunderground v.1.15,2013-03-20 10:59:00,
2013-03-20 06:04:00,54.8,49.4,30.08,NNE,24,4.0,7.0,82,0.00,,,0.00,0,Wunderground v.1.15,2013-03-20 11:04:00,
2013-03-20 06:14:00,54.5,49.4,30.09,NNW,337,3.0,10.0,83,0.00,,,0.00,0,Wunderground v.1.15,2013-03-20 11:14:00,
2013-03-20 06:19:00,54.5,49.8,30.10,NNW,346,3.0,3.0,84,0.00,,,0.00,0,Wunderground v.1.15,2013-03-20 11:19:00,
2013-03-20 06:24:00,54.3,49.6,30.11,ENE,60,3.0,3.0,84,0.00,,,0.01,0,Wunderground v.1.15,2013-03-20 11:24:00,
2013-03-20 06:29:00,54.2,50.1,30.12,East,101,1.0,1.0,86,0.00,,,0.01,0,Wunderground v.1.15,2013-03-20 11:29:00,
2013-03-20 06:39:00,53.8,50.6,30.11,SE,128,0.0,1.0,89,0.04,,,0.02,0,Wunderground v.1.15,2013-03-20 11:39:00,
2013-03-20 06:44:00,53.5,50.6,30.10,SE,146,1.0,3.0,90,0.13,,,0.03,0,Wunderground v.1.15,2013-03-20 11:44:00,
2013-03-20 06:49:00,53.2,50.3,30.11,SSE,150,1.0,1.0,90,0.14,,,0.05,0,Wunderground v.1.15,2013-03-20 11:49:00,
2013-03-20 06:54:00,53.1,50.5,30.11,SSE,153,1.0,1.0,91,0.18,,,0.06,0,Wunderground v.1.15,2013-03-20 11:54:00,
2013-03-20 06:59:00,53.0,50.4,30.10,SSE,152,1.0,2.0,91,0.10,,,0.07,0,Wunderground v.1.15,2013-03-20 11:59:00,
2013-03-20 07:09:00,52.8,50.5,30.11,SE,138,1.0,1.0,92,0.05,,,0.07,0,Wunderground v.1.15,2013-03-20 12:09:00,
2013-03-20 07:19:00,52.7,50.7,30.11,SE,135,1.0,1.0,93,0.00,,,0.07,0,Wunderground v.1.15,2013-03-20 12:19:00,
2013-03-20 07:24:00,52.7,50.7,30.10,SE,135,1.0,1.0,93,0.00,,,0.07,0,Wunderground v.1.15,2013-03-20 12:24:00,
2013-03-20 07:29:00,52.7,50.7,30.10,SE,125,1.0,1.0,93,0.00,,,0.07,0,Wunderground v.1.15,2013-03-20 12:29:00,
2013-03-20 07:39:00,52.6,50.6,30.10,SSE,161,1.0,3.0,93,0.00,,,0.07,0,Wunderground v.1.15,2013-03-20 12:39:00,
2013-03-20 07:44:00,52.6,50.6,30.12,SSE,162,1.0,3.0,93,0.00,,,0.07,0,Wunderground v.1.15,2013-03-20 12:44:00,
2013-03-20 07:49:00,52.6,50.6,30.12,SSE,161,1.0,2.0,93,0.00,,,0.07,0,Wunderground v.1.15,2013-03-20 12:49:00,
2013-03-20 07:54:00,52.7,50.7,30.11,SSE,155,1.0,2.0,93,0.00,,,0.07,7,Wunderground v.1.15,2013-03-20 12:54:00,
2013-03-20 07:59:00,52.7,51.0,30.13,NNW,343,1.0,1.0,94,0.00,,,0.07,16,Wunderground v.1.15,2013-03-20 12:59:00,
2013-03-20 08:09:00,52.8,51.1,30.14,North,11,2.0,2.0,94,0.00,,,0.07,26,Wunderground v.1.15,2013-03-20 13:09:00,
2013-03-20 08:14:00,52.9,51.2,30.14,NNE,12,1.0,4.0,94,0.00,,,0.07,28,Wunderground v.1.15,2013-03-20 13:14:00,
2013-03-20 08:19:00,52.9,51.2,30.15,NNW,342,2.0,2.0,94,0.00,,,0.07,18,Wunderground v.1.15,2013-03-20 13:19:00,
2013-03-20 08:29:00,52.7,51.0,30.15,North,355,4.0,4.0,94,0.00,,,0.07,53,Wunderground v.1.15,2013-03-20 13:29:00,
2013-03-20 08:39:00,52.5,50.5,30.15,WNW,294,5.0,5.0,93,0.00,,,0.07,47,Wunderground v.1.15,2013-03-20 13:39:00,
2013-03-20 08:44:00,52.3,50.3,30.15,NE,55,4.0,6.0,93,0.00,,,0.07,53,Wunderground v.1.15,2013-03-20 13:44:00,
2013-03-20 08:54:00,52.2,50.2,30.16,NNE,33,4.0,4.0,93,0.00,,,0.07,83,Wunderground v.1.15,2013-03-20 13:54:00,
2013-03-20 08:59:00,52.2,50.2,30.17,North,10,4.0,4.0,93,0.00,,,0.07,116,Wunderground v.1.15,2013-03-20 13:59:00,
2013-03-20 09:04:00,52.3,50.3,30.17,North,350,3.0,9.0,93,0.00,,,0.07,125,Wunderground v.1.15,2013-03-20 14:04:00,
2013-03-20 09:09:00,52.2,49.9,30.17,North,5,5.0,5.0,92,0.00,,,0.07,63,Wunderground v.1.15,2013-03-20 14:09:00,
2013-03-20 09:14:00,52.1,49.8,30.18,North,5,6.0,6.0,92,0.00,,,0.07,84,Wunderground v.1.15,2013-03-20 14:14:00,
2013-03-20 09:24:00,52.1,49.6,30.18,North,360,4.0,9.0,91,0.00,,,0.07,151,Wunderground v.1.15,2013-03-20 14:24:00,
2013-03-20 09:29:00,52.1,49.6,30.18,ENE,60,5.0,6.0,91,0.00,,,0.07,193,Wunderground v.1.15,2013-03-20 14:29:00,
2013-03-20 09:34:00,52.2,49.4,30.18,ENE,57,5.0,9.0,90,0.00,,,0.07,209,Wunderground v.1.15,2013-03-20 14:34:00,
2013-03-20 09:44:00,52.6,49.4,30.18,ENE,63,6.0,6.0,89,0.00,,,0.07,292,Wunderground v.1.15,2013-03-20 14:44:00,
2013-03-20 09:54:00,53.6,49.5,30.18,ENE,64,6.0,6.0,86,0.00,,,0.07,506,Wunderground v.1.15,2013-03-20 14:54:00,
2013-03-20 09:59:00,54.1,50.0,30.18,NE,53,6.0,7.0,86,0.00,,,0.07,526,Wunderground v.1.15,2013-03-20 14:59:00,
2013-03-20 10:04:00,54.7,49.6,30.18,NE,51,6.0,12.0,83,0.00,,,0.07,504,Wunderground v.1.15,2013-03-20 15:04:00,
2013-03-20 10:09:00,54.8,49.4,30.17,East,82,6.0,12.0,82,0.00,,,0.07,543,Wunderground v.1.15,2013-03-20 15:09:00,
2013-03-20 10:19:00,55.2,50.1,30.17,NE,56,6.0,6.0,83,0.00,,,0.07,584,Wunderground v.1.15,2013-03-20 15:19:00,
2013-03-20 10:24:00,55.9,50.5,30.18,ENE,68,4.0,11.0,82,0.00,,,0.07,599,Wunderground v.1.15,2013-03-20 15:24:00,
2013-03-20 10:29:00,56.4,50.6,30.18,NNE,17,4.0,7.0,81,0.00,,,0.07,617,Wunderground v.1.15,2013-03-20 15:29:00,
2013-03-20 10:34:00,56.7,50.6,30.18,ENE,65,6.0,7.0,80,0.00,,,0.07,629,Wunderground v.1.15,2013-03-20 15:34:00,
2013-03-20 10:44:00,57.7,50.5,30.18,East,94,4.0,5.0,77,0.00,,,0.07,659,Wunderground v.1.15,2013-03-20 15:44:00,
2013-03-20 10:49:00,57.8,50.6,30.18,NE,53,6.0,6.0,77,0.00,,,0.07,677,Wunderground v.1.15,2013-03-20 15:49:00,
2013-03-20 10:54:00,58.5,51.3,30.18,ENE,57,6.0,6.0,77,0.00,,,0.07,693,Wunderground v.1.15,2013-03-20 15:54:00,
2013-03-20 10:59:00,59.1,50.8,30.19,NNW,333,5.0,9.0,74,0.00,,,0.07,703,Wunderground v.1.15,2013-03-20 15:59:00,
2013-03-20 11:04:00,59.5,50.5,30.18,ENE,60,6.0,9.0,72,0.00,,,0.07,717,Wunderground v.1.15,2013-03-20 16:04:00,
2013-03-20 11:09:00,59.3,50.6,30.18,NE,39,6.0,6.0,73,0.00,,,0.07,729,Wunderground v.1.15,2013-03-20 16:09:00,
2013-03-20 11:19:00,60.1,51.0,30.19,ESE,102,6.0,6.0,72,0.00,,,0.07,754,Wunderground v.1.15,2013-03-20 16:19:00,
2013-03-20 11:29:00,60.9,51.8,30.18,ENE,75,5.0,5.0,72,0.00,,,0.07,777,Wunderground v.1.15,2013-03-20 16:29:00,
2013-03-20 11:34:00,61.0,51.5,30.18,NE,56,6.0,7.0,71,0.00,,,0.07,788,Wunderground v.1.15,2013-03-20 16:34:00,
2013-03-20 11:39:00,61.5,51.6,30.18,NE,55,6.0,9.0,70,0.00,,,0.07,798,Wunderground v.1.15,2013-03-20 16:39:00,
2013-03-20 11:49:00,62.3,52.4,30.18,NE,42,5.0,6.0,70,0.00,,,0.07,819,Wunderground v.1.15,2013-03-20 16:49:00,
2013-03-20 11:54:00,63.0,53.1,30.18,ENE,59,5.0,6.0,70,0.00,,,0.07,826,Wunderground v.1.15,2013-03-20 16:54:00,
2013-03-20 11:59:00,62.9,52.2,30.18,ENE,68,6.0,6.0,68,0.00,,,0.07,823,Wunderground v.1.15,2013-03-20 16:59:00,
2013-03-20 12:04:00,63.2,52.9,30.17,North,360,7.0,7.0,69,0.00,,,0.07,847,Wunderground v.1.15,2013-03-20 17:04:00,
2013-03-20 12:14:00,63.8,52.2,30.17,NNE,22,6.0,7.0,66,0.00,,,0.07,858,Wunderground v.1.15,2013-03-20 17:14:00,
2013-03-20 12:19:00,64.6,53.4,30.16,North,11,6.0,6.0,67,0.00,,,0.07,865,Wunderground v.1.15,2013-03-20 17:19:00,
2013-03-20 12:29:00,65.3,51.9,30.16,ENE,65,6.0,6.0,62,0.00,,,0.07,879,Wunderground v.1.15,2013-03-20 17:29:00,
2013-03-20 12:34:00,65.7,51.9,30.16,ENE,72,6.0,6.0,61,0.00,,,0.07,882,Wunderground v.1.15,2013-03-20 17:34:00,
2013-03-20 12:44:00,66.5,50.3,30.16,NE,55,6.0,9.0,56,0.00,,,0.07,891,Wunderground v.1.15,2013-03-20 17:44:00,
2013-03-20 12:54:00,66.5,49.3,30.15,NE,35,8.0,14.0,54,0.00,,,0.07,902,Wunderground v.1.15,2013-03-20 17:54:00,
2013-03-20 12:59:00,67.0,50.3,30.15,East,90,7.0,7.0,55,0.00,,,0.07,902,Wunderground v.1.15,2013-03-20 17:59:00,
2013-03-20 13:04:00,67.7,49.4,30.15,NNE,24,7.0,7.0,52,0.00,,,0.07,909,Wunderground v.1.15,2013-03-20 18:04:00,
2013-03-20 13:09:00,68.4,48.5,30.14,ENE,65,5.0,13.0,49,0.00,,,0.07,911,Wunderground v.1.15,2013-03-20 18:09:00,
2013-03-20 13:14:00,68.7,49.3,30.14,NNE,15,6.0,13.0,50,0.00,,,0.07,912,Wunderground v.1.15,2013-03-20 18:14:00,
2013-03-20 13:24:00,68.9,50.0,30.13,NNW,341,6.0,9.0,51,0.00,,,0.07,914,Wunderground v.1.15,2013-03-20 18:24:00,
2013-03-20 13:29:00,69.2,46.4,30.13,ENE,69,6.0,12.0,44,0.00,,,0.07,912,Wunderground v.1.15,2013-03-20 18:29:00,
2013-03-20 13:34:00,69.0,47.9,30.13,ENE,67,8.0,12.0,47,0.00,,,0.07,907,Wunderground v.1.15,2013-03-20 18:34:00,
2013-03-20 13:39:00,69.4,47.1,30.13,ENE,58,8.0,8.0,45,0.00,,,0.07,909,Wunderground v.1.15,2013-03-20 18:39:00,
2013-03-20 13:44:00,69.8,46.3,30.13,North,355,7.0,8.0,43,0.00,,,0.07,907,Wunderground v.1.15,2013-03-20 18:44:00,
2013-03-20 13:54:00,70.6,45.1,30.13,NNW,344,7.0,16.0,40,0.00,,,0.07,900,Wunderground v.1.15,2013-03-20 18:54:00,
2013-03-20 13:59:00,70.6,45.1,30.12,ENE,65,8.0,13.0,40,0.00,,,0.07,896,Wunderground v.1.15,2013-03-20 18:59:00,
2013-03-20 14:04:00,70.0,45.2,30.12,NE,37,9.0,13.0,41,0.00,,,0.07,896,Wunderground v.1.15,2013-03-20 19:04:00,
2013-03-20 14:09:00,70.4,44.9,30.11,North,5,7.0,7.0,40,0.00,,,0.07,893,Wunderground v.1.15,2013-03-20 19:09:00,
2013-03-20 14:14:00,70.3,44.8,30.11,NNE,19,7.0,10.0,40,0.00,,,0.07,884,Wunderground v.1.15,2013-03-20 19:14:00,
2013-03-20 14:24:00,70.5,45.0,30.11,ENE,69,6.0,9.0,40,0.00,,,0.07,872,Wunderground v.1.15,2013-03-20 19:24:00,
2013-03-20 14:29:00,71.1,44.9,30.11,NE,55,7.0,7.0,39,0.00,,,0.07,870,Wunderground v.1.15,2013-03-20 19:29:00,
2013-03-20 14:34:00,71.1,43.5,30.10,North,360,6.0,12.0,37,0.00,,,0.07,863,Wunderground v.1.15,2013-03-20 19:34:00,
2013-03-20 14:39:00,71.3,45.1,30.10,ENE,60,6.0,8.0,39,0.00,,,0.07,854,Wunderground v.1.15,2013-03-20 19:39:00,
2013-03-20 14:44:00,71.6,41.0,30.10,North,349,6.0,13.0,33,0.00,,,0.07,853,Wunderground v.1.15,2013-03-20 19:44:00,
2013-03-20 14:54:00,71.9,39.6,30.10,East,93,7.0,7.0,31,0.00,,,0.07,835,Wunderground v.1.15,2013-03-20 19:54:00,
2013-03-20 15:04:00,72.0,39.7,30.09,NE,41,6.0,7.0,31,0.00,,,0.07,816,Wunderground v.1.15,2013-03-20 20:04:00,
2013-03-20 15:09:00,72.6,40.2,30.08,NE,42,6.0,6.0,31,0.00,,,0.07,807,Wunderground v.1.15,2013-03-20 20:09:00,
2013-03-20 15:14:00,72.7,40.3,30.08,NE,48,7.0,7.0,31,0.00,,,0.07,793,Wunderground v.1.15,2013-03-20 20:14:00,
2013-03-20 15:19:00,72.7,37.7,30.08,NE,36,6.0,9.0,28,0.00,,,0.07,789,Wunderground v.1.15,2013-03-20 20:19:00,
2013-03-20 15:29:00,73.1,36.2,30.08,NE,41,6.0,9.0,26,0.00,,,0.07,768,Wunderground v.1.15,2013-03-20 20:29:00,
2013-03-20 15:34:00,72.9,36.0,30.08,NNE,18,7.0,14.0,26,0.00,,,0.07,758,Wunderground v.1.15,2013-03-20 20:34:00,
2013-03-20 15:39:00,72.9,36.0,30.07,NE,37,7.0,7.0,26,0.00,,,0.07,742,Wunderground v.1.15,2013-03-20 20:39:00,
2013-03-20 15:44:00,73.0,35.1,30.07,East,86,6.0,11.0,25,0.00,,,0.07,728,Wunderground v.1.15,2013-03-20 20:44:00,
2013-03-20 15:49:00,72.8,34.9,30.07,North,355,6.0,6.0,25,0.00,,,0.07,715,Wunderground v.1.15,2013-03-20 20:49:00,
2013-03-20 15:54:00,72.5,34.7,30.07,ENE,65,7.0,11.0,25,0.00,,,0.07,703,Wunderground v.1.15,2013-03-20 20:54:00,
2013-03-20 16:04:00,72.0,35.2,30.06,ENE,61,8.0,11.0,26,0.00,,,0.07,677,Wunderground v.1.15,2013-03-20 21:04:00,
2013-03-20 16:14:00,72.5,34.7,30.06,ENE,68,5.0,9.0,25,0.00,,,0.07,647,Wunderground v.1.15,2013-03-20 21:14:00,
2013-03-20 16:19:00,72.5,35.6,30.06,ENE,71,6.0,6.0,26,0.00,,,0.07,631,Wunderground v.1.15,2013-03-20 21:19:00,
2013-03-20 16:24:00,72.4,34.6,30.06,NNE,15,6.0,6.0,25,0.00,,,0.07,615,Wunderground v.1.15,2013-03-20 21:24:00,
2013-03-20 16:34:00,72.4,34.6,30.06,NE,38,6.0,9.0,25,0.00,,,0.07,584,Wunderground v.1.15,2013-03-20 21:34:00,
2013-03-20 16:39:00,72.6,34.7,30.07,NNW,336,6.0,6.0,25,0.00,,,0.07,568,Wunderground v.1.15,2013-03-20 21:39:00,
2013-03-20 16:49:00,72.4,34.6,30.06,ENE,78,6.0,8.0,25,0.00,,,0.07,531,Wunderground v.1.15,2013-03-20 21:49:00,
2013-03-20 16:54:00,72.0,34.2,30.06,NE,53,7.0,8.0,25,0.00,,,0.07,513,Wunderground v.1.15,2013-03-20 21:54:00,
2013-03-20 17:04:00,72.4,33.5,30.06,NE,55,4.0,9.0,24,0.00,,,0.07,476,Wunderground v.1.15,2013-03-20 22:04:00,
2013-03-20 17:09:00,72.3,35.5,30.06,North,355,5.0,5.0,26,0.00,,,0.07,464,Wunderground v.1.15,2013-03-20 22:09:00,
2013-03-20 17:14:00,72.3,34.5,30.05,ENE,75,6.0,7.0,25,0.00,,,0.07,446,Wunderground v.1.15,2013-03-20 22:14:00,
2013-03-20 17:19:00,72.4,35.6,30.06,ENE,69,5.0,7.0,26,0.00,,,0.07,427,Wunderground v.1.15,2013-03-20 22:19:00,
2013-03-20 17:24:00,72.3,35.5,30.06,ENE,71,6.0,7.0,26,0.00,,,0.07,417,Wunderground v.1.15,2013-03-20 22:24:00,
2013-03-20 17:29:00,72.3,33.5,30.06,North,5,4.0,4.0,24,0.00,,,0.07,411,Wunderground v.1.15,2013-03-20 22:29:00,
2013-03-20 17:39:00,72.4,35.6,30.05,North,10,5.0,5.0,26,0.00,,,0.07,359,Wunderground v.1.15,2013-03-20 22:39:00,
2013-03-20 17:44:00,72.4,35.6,30.05,ENE,64,5.0,5.0,26,0.00,,,0.07,329,Wunderground v.1.15,2013-03-20 22:44:00,
2013-03-20 17:49:00,71.9,34.1,30.05,NE,40,6.0,6.0,25,0.00,,,0.07,308,Wunderground v.1.15,2013-03-20 22:49:00,
2013-03-20 17:54:00,71.8,35.0,30.05,NNW,335,4.0,7.0,26,0.00,,,0.07,292,Wunderground v.1.15,2013-03-20 22:54:00,
2013-03-20 17:59:00,71.9,36.1,30.05,NNE,12,4.0,4.0,27,0.00,,,0.07,271,Wunderground v.1.15,2013-03-20 22:59:00,
2013-03-20 18:09:00,71.9,35.1,30.05,NE,40,4.0,7.0,26,0.00,,,0.07,223,Wunderground v.1.15,2013-03-20 23:09:00,
2013-03-20 18:14:00,71.7,35.0,30.05,NE,50,5.0,7.0,26,0.00,,,0.07,200,Wunderground v.1.15,2013-03-20 23:14:00,
2013-03-20 18:24:00,71.0,34.4,30.05,East,99,5.0,6.0,26,0.00,,,0.07,128,Wunderground v.1.15,2013-03-20 23:24:00,
2013-03-20 18:29:00,70.5,34.9,30.05,North,360,5.0,5.0,27,0.00,,,0.07,93,Wunderground v.1.15,2013-03-20 23:29:00,
2013-03-20 18:34:00,70.3,35.6,30.05,North,10,3.0,5.0,28,0.00,,,0.07,69,Wunderground v.1.15,2013-03-20 23:34:00,
2013-03-20 18:39:00,70.0,35.4,30.05,North,360,3.0,4.0,28,0.00,,,0.07,58,Wunderground v.1.15,2013-03-20 23:39:00,
2013-03-20 18:44:00,69.8,34.3,30.05,North,355,4.0,4.0,27,0.00,,,0.07,42,Wunderground v.1.15,2013-03-20 23:44:00,
2013-03-20 18:54:00,69.2,36.4,30.05,NE,48,1.0,3.0,30,0.00,,,0.07,23,Wunderground v.1.15,2013-03-20 23:54:00,
2013-03-20 18:59:00,68.8,36.1,30.06,NE,40,1.0,1.0,30,0.00,,,0.07,21,Wunderground v.1.15,2013-03-20 23:59:00,
2013-03-20 19:04:00,68.5,35.0,30.06,North,10,2.0,4.0,29,0.00,,,0.07,18,Wunderground v.1.15,2013-03-21 00:04:00,
2013-03-20 19:14:00,67.9,36.1,30.05,ENE,68,1.0,2.0,31,0.00,,,0.07,14,Wunderground v.1.15,2013-03-21 00:14:00,
2013-03-20 19:24:00,67.0,38.4,30.05,ENE,68,0.0,0.0,35,0.00,,,0.07,5,Wunderground v.1.15,2013-03-21 00:24:00,
2013-03-20 19:29:00,66.4,37.9,30.05,ENE,68,0.0,0.0,35,0.00,,,0.07,0,Wunderground v.1.15,2013-03-21 00:29:00,
2013-03-20 19:34:00,65.7,38.7,30.05,ENE,68,0.0,0.0,37,0.00,,,0.07,0,Wunderground v.1.15,2013-03-21 00:34:00,
2013-03-20 19:39:00,64.8,38.6,30.05,ENE,68,0.0,0.0,38,0.00,,,0.07,0,Wunderground v.1.15,2013-03-21 00:39:00,
2013-03-20 19:49:00,63.1,40.2,30.06,ENE,68,0.0,0.0,43,0.00,,,0.07,0,Wunderground v.1.15,2013-03-21 00:49:00,
2013-03-20 19:54:00,62.3,41.8,30.05,ENE,68,0.0,0.0,47,0.00,,,0.07,0,Wunderground v.1.15,2013-03-21 00:54:00,
2013-03-20 19:59:00,61.6,41.7,30.05,ENE,68,0.0,0.0,48,0.00,,,0.07,0,Wunderground v.1.15,2013-03-21 00:59:00,
2013-03-20 20:04:00,61.0,41.7,30.05,ENE,68,0.0,0.0,49,0.00,,,0.07,0,Wunderground v.1.15,2013-03-21 01:04:00,
2013-03-20 20:09:00,60.5,40.7,30.05,ENE,68,0.0,0.0,48,0.00,,,0.07,0,Wunderground v.1.15,2013-03-21 01:09:00,
2013-03-20 20:19:00,59.4,40.2,30.05,ENE,68,0.0,0.0,49,0.00,,,0.07,0,Wunderground v.1.15,2013-03-21 01:19:00,
2013-03-20 20:24:00,58.8,40.7,30.05,ENE,68,0.0,0.0,51,0.00,,,0.07,0,Wunderground v.1.15,2013-03-21 01:24:00,
2013-03-20 20:29:00,58.2,41.1,30.05,ENE,68,0.0,0.0,53,0.00,,,0.07,0,Wunderground v.1.15,2013-03-21 01:29:00,
2013-03-20 20:34:00,57.7,43.0,30.05,ENE,68,0.0,0.0,58,0.00,,,0.07,0,Wunderground v.1.15,2013-03-21 01:34:00,
2013-03-20 20:39:00,57.3,44.4,30.05,ENE,68,0.0,0.0,62,0.00,,,0.07,0,Wunderground v.1.15,2013-03-21 01:39:00,
2013-03-20 20:49:00,56.5,43.2,30.05,ENE,68,0.0,0.0,61,0.00,,,0.07,0,Wunderground v.1.15,2013-03-21 01:49:00,
2013-03-20 20:59:00,55.7,42.9,30.05,ENE,68,0.0,0.0,62,0.00,,,0.07,0,Wunderground v.1.15,2013-03-21 01:59:00,
2013-03-20 21:04:00,55.3,42.9,30.06,ENE,68,0.0,0.0,63,0.00,,,0.07,0,Wunderground v.1.15,2013-03-21 02:04:00,
2013-03-20 21:14:00,54.5,44.2,30.06,ENE,68,0.0,0.0,68,0.00,,,0.07,0,Wunderground v.1.15,2013-03-21 02:14:00,
2013-03-20 21:19:00,54.0,42.5,30.06,ENE,68,0.0,0.0,65,0.00,,,0.07,0,Wunderground v.1.15,2013-03-21 02:19:00,
2013-03-20 21:24:00,53.6,42.5,30.06,ENE,68,0.0,0.0,66,0.00,,,0.07,0,Wunderground v.1.15,2013-03-21 02:24:00,
2013-03-20 21:34:00,53.0,42.3,30.06,ENE,68,0.0,0.0,67,0.00,,,0.07,0,Wunderground v.1.15,2013-03-21 02:34:00,
2013-03-20 21:39:00,52.8,42.9,30.06,ENE,68,0.0,0.0,69,0.00,,,0.07,0,Wunderground v.1.15,2013-03-21 02:39:00,
2013-03-20 21:49:00,52.4,43.3,30.06,ENE,68,0.0,0.0,71,0.00,,,0.07,0,Wunderground v.1.15,2013-03-21 02:49:00,
2013-03-20 21:54:00,52.2,42.7,30.06,ENE,68,0.0,0.0,70,0.00,,,0.07,0,Wunderground v.1.15,2013-03-21 02:54:00,
2013-03-20 21:59:00,52.0,42.9,30.07,ENE,68,0.0,0.0,71,0.00,,,0.07,0,Wunderground v.1.15,2013-03-21 02:59:00,
2013-03-20 22:04:00,51.8,42.3,30.06,ENE,68,0.0,0.0,70,0.00,,,0.07,0,Wunderground v.1.15,2013-03-21 03:04:00,
2013-03-20 22:09:00,51.6,42.9,30.07,ENE,68,0.0,0.0,72,0.00,,,0.07,0,Wunderground v.1.15,2013-03-21 03:09:00,
2013-03-20 22:14:00,51.4,41.6,30.07,ENE,68,0.0,0.0,69,0.00,,,0.07,0,Wunderground v.1.15,2013-03-21 03:14:00,
2013-03-20 22:24:00,50.9,39.9,30.06,ENE,68,0.0,0.0,66,0.00,,,0.07,0,Wunderground v.1.15,2013-03-21 03:24:00,
2013-03-20 22:29:00,50.7,40.1,30.07,ENE,68,0.0,0.0,67,0.00,,,0.07,0,Wunderground v.1.15,2013-03-21 03:29:00,
2013-03-20 22:34:00,50.4,39.9,30.06,ENE,68,0.0,0.0,67,0.00,,,0.07,0,Wunderground v.1.15,2013-03-21 03:34:00,
2013-03-20 22:39:00,50.2,40.8,30.06,ENE,68,0.0,0.0,70,0.00,,,0.07,0,Wunderground v.1.15,2013-03-21 03:39:00,
2013-03-20 22:44:00,50.1,41.1,30.06,ENE,68,0.0,0.0,71,0.00,,,0.07,0,Wunderground v.1.15,2013-03-21 03:44:00,
2013-03-20 22:54:00,49.9,42.3,30.06,ENE,68,0.0,0.0,75,0.00,,,0.07,0,Wunderground v.1.15,2013-03-21 03:54:00,
2013-03-20 22:59:00,49.9,41.9,30.06,ENE,68,0.0,0.0,74,0.00,,,0.07,0,Wunderground v.1.15,2013-03-21 03:59:00,
2013-03-20 23:04:00,49.9,42.3,30.06,ENE,68,0.0,0.0,75,0.00,,,0.07,0,Wunderground v.1.15,2013-03-21 04:04:00,
2013-03-20 23:09:00,49.8,42.2,30.06,ENE,68,0.0,0.0,75,0.00,,,0.07,0,Wunderground v.1.15,2013-03-21 04:09:00,
2013-03-20 23:14:00,49.7,42.4,30.06,ENE,68,0.0,0.0,76,0.00,,,0.07,0,Wunderground v.1.15,2013-03-21 04:14:00,
2013-03-20 23:19:00,49.8,42.9,30.06,ENE,68,0.0,0.0,77,0.00,,,0.07,0,Wunderground v.1.15,2013-03-21 04:19:00,
2013-03-20 23:24:00,49.8,42.9,30.06,ENE,68,0.0,0.0,77,0.00,,,0.07,0,Wunderground v.1.15,2013-03-21 04:24:00,
2013-03-20 23:29:00,50.0,43.4,30.06,ENE,68,0.0,0.0,78,0.00,,,0.07,0,Wunderground v.1.15,2013-03-21 04:29:00,
2013-03-20 23:34:00,50.2,43.9,30.05,ENE,68,0.0,0.0,79,0.00,,,0.07,0,Wunderground v.1.15,2013-03-21 04:34:00,
2013-03-20 23:44:00,50.5,44.2,30.05,ENE,68,0.0,0.0,79,0.00,,,0.07,0,Wunderground v.1.15,2013-03-21 04:44:00,
2013-03-20 23:49:00,50.5,44.2,30.05,ENE,68,0.0,0.0,79,0.00,,,0.07,0,Wunderground v.1.15,2013-03-21 04:49:00,
2013-03-20 23:59:00,50.4,44.1,30.04,ENE,68,0.0,0.0,79,0.00,,,0.07,0,Wunderground v.1.15,2013-03-21 04:59:00,